Miscellaneous Local Product
Issued by NWS North Platte, NE

Home | Current Version | Previous Version | Graphics & Text | Print | Product List | Glossary On
Versions: 1 2 3 4 5 6 7 8 9 10 11 12 13 14 15 16 17 18 19 20 21 22 23 24 25 26 27 28 29 30 31 32 33 34 35 36 37 38 39 40 41 42 43 44 45 46 47 48 49 50
000
AXUS43 KLBF 191910
MISLBF


WESTERN AND NORTH CENTRAL NEBRASKA HOURLY WEATHER ROUNDUP
NATIONAL WEATHER SERVICE NORTH PLATTE NE
200 PM CDT SUN OCT 19 2014

***STATIONS NOT REPORTING VARIABLES SUCH AS SKY/WEATHER OR
PRESSURE ARE PROVIDED BY THE NEBRASKA DEPARTMENT OF
ROADS...RAWS...AND APRS NETWORKS...AND ARE NOT UNDER
NATIONAL WEATHER SERVICE QUALITY CONTROL***

...OBSERVATIONS IN AND NEAR THE EASTERN PANHANDLE OF NEBRASKA...

CITY           SKY/WX    TMP DP  RH WIND       PRES   REMARKS
PINE RIDGE     SUNNY     71  41  33 N6        30.05F
CHADRON        SUNNY     70  42  36 CALM      30.06F
ALLIANCE       SUNNY     72  39  30 E7        30.06F
SIDNEY         SUNNY     71  40  32 NE10      30.08F
WHITECLAY        N/A     70  40  34 CALM        N/A
RUSHVILLE        N/A     74  28  18 N13         N/A
CRESCENT LAKE    N/A     74  37  26 NE6G13      N/A
LISCO            N/A     77  26  15 N5          N/A
BIG SPRINGS      N/A     67  46  47 NE3         N/A
LEWELLEN         N/A     84  37  18 CALM        N/A
$$

...OBSERVATIONS IN NORTH CENTRAL NEBRASKA...

CITY           SKY/WX    TMP DP  RH WIND       PRES   REMARKS
VALENTINE      SUNNY     78  37  22 N13       29.99F
THEDFORD       SUNNY     76  40  27 NE12      30.01F
AINSWORTH      SUNNY     74  39  29 N8        29.99F
O`NEILL        SUNNY     74  44  33 NW6       29.96F
ORD            SUNNY     69  45  41 W8        29.97F
BROKEN BOW     SUNNY     71  47  42 W3        29.99F
BROWNLEE         N/A     77  35  21 N6          N/A
SPRINGVIEW       N/A     76  41  28 N3G17       N/A
BREWSTER         N/A     78  44  29 CALM        N/A
ROSE             N/A     79  42  26 N8          N/A
NEWPORT          N/A     77  40  25 W7          N/A
SARGENT          N/A     71  47  41 CALM        N/A
COMSTOCK         N/A     75  49  39 W5          N/A
CHAMBERS         N/A     73  49  43 CALM        N/A
$$

...OBSERVATIONS IN SOUTHWEST NEBRASKA AND FAR NORTHEAST COLORADO...

CITY           SKY/WX    TMP DP  RH WIND       PRES   REMARKS
WRAY           FAIR      77  38  24 NE7       30.03F
HOLYOKE        FAIR      79  43  27 NE6       30.04F
IMPERIAL       SUNNY     73  43  33 NE7       30.02F
OGALLALA       SUNNY     76  44  31 E7        30.02F
NORTH PLATTE   SUNNY     66  45  46 SW5       30.01F
MCCOOK         SUNNY     68  46  45 VRB3      30.01F
LEXINGTON      SUNNY     69  47  46 CALM      30.00F
PAXTON           N/A     67  49  52 CALM        N/A
SUTHERLAND       N/A     78  42  27 NE3         N/A
BRADY            N/A     66  50  56 CALM        N/A
GOTHENBURG       N/A     68  45  42 W3          N/A
CALLAWAY         N/A     66  49  54 N3          N/A
$$

...SOME WEATHER OBSERVATIONS FROM AROUND THE REGION...

CITY           SKY/WX    TMP DP  RH WIND       PRES   REMARKS
DENVER         MOSUNNY   72  31  22 N3        30.13F
LARAMIE        SUNNY     63  29  27 MISG      30.21F
CHEYENNE       SUNNY     67  28  23 N8        30.16F
SCOTTSBLUFF    SUNNY     71  43  36 MISG      30.08F
RAPID CITY     SUNNY     72  40  31 N10       30.04F
PIERRE         SUNNY     74  42  31 NW17      29.94F
WINNER         FAIR      77  39  25 NW13      29.97F
SIOUX FALLS    MOSUNNY   70  46  42 VRB7      29.90F
OMAHA          PTSUNNY   68  45  43 SW13      29.98F
GRAND ISLAND   SUNNY     71  47  42 SW12      30.00F
KANSAS CITY    MOSUNNY   66  47  50 SW15      30.08F
WICHITA        MOSUNNY   68  48  48 S14       30.07F
HAYS           SUNNY     72  48  43 SW18G24   30.00F
LIBERAL        SUNNY     75  52  43 SW22G30   30.03F
GOODLAND       SUNNY     73  43  33 N13       30.03F
$$



USA.gov is the U.S. government's official web portal to all federal, state and local government web resources and services.